TJS-4

Last updated on Wed Aug 12 2026 00:03:04 GMT+0000 (Coordinated Universal Time)

1 44637U 19070A 26223.02041043 -.00000184 00000+0 00000+0 0 9992 2 44637 0.0587 260.7526 0001480 346.1340 163.3864 1.00274167 25082
UTC large
Height (km)
Speed (km/s)
/
Latitude / Longitude
Inclination (degrees)
Orbital Period (minutes)
Azimuth
Elevation
Range (km)
Doppler Factor

Next 0 passes for location: London (51.5072 / 0.1276)

No passes found over London.
TJS-4